Location: Juzet
(42.9779°N, 0.7597°E)
Time: 17:52:58
(UTC+00:00)

IRS-1D - Pass Details

Date: 14 July 2020
Orbit: 739 x 817 km, 98.6° (Epoch: 13 August)

Event Time Altitude Azimuth Distance (km) Brightness Sun altitude
Rises 02:19:41 0° 12° (NNE) 3,192 8.0 -18.1°
Reaches altitude 10° 02:21:59 10° 12° (NNE) 2,260 7.0 -17.9°
Maximum altitude 02:26:56 81° 285° (WNW) 754 3.4 -17.4°
Enters shadow 02:29:28 29° 202° (SSW) 1,327 4.2 -17.1°
